Regional Weather Roundup
Issued by NWS Raleigh/Durham, NC

Home | Current Version | Previous Version | Text Only | Print | Product List | Glossary On
Versions: 1 2 3 4 5 6 7 8 9 10 11 12 13 14 15 16 17 18 19 20 21 22 23 24 25 26 27 28 29 30 31 32 33 34 35 36 37 38 39 40 41 42 43 44 45 46 47 48 49 50
000
ASUS42 KRAH 241410
RWRRAH
NORTH CAROLINA WEATHER ROUNDUP
NATIONAL WEATHER SERVICE RALEIGH NC
1000 AM EDT WED MAY 24 2017

NOTE: "FAIR" INDICATES FEW OR NO CLOUDS BELOW 12,000 FEET WITH NO
SIGNIFICANT WEATHER AND/OR OBSTRUCTIONS TO VISIBILITY.

NCZ001-053-055-056-065-067-241500-
WESTERN NORTH CAROLINA

CITY           SKY/WX    TMP DP  RH WIND       PRES   REMARKS
ASHEVILLE      CLOUDY    63  59  87 SE9       29.63F
JEFFERSON      FOG       55  55 100 SE3       29.69S VSB 3/4
HICKORY        CLOUDY    65  63  93 CALM      29.64F
RUTHERFORDTON  CLOUDY    65  65 100 S3        29.65F
MOUNT AIRY     PTSUNNY   62  57  85 E12       29.69S
BOONE          NOT AVBL
$$

NCZ021-022-025-041-071-084-088-241500-
CENTRAL NORTH CAROLINA

CITY           SKY/WX    TMP DP  RH WIND       PRES   REMARKS
CHARLOTTE      CLOUDY    69  63  81 SE10      29.65F
GREENSBORO     LGT RAIN  63  63 100 E8        29.67S FOG
WINSTON-SALEM  CLOUDY    62  60  93 E6        29.67F
RALEIGH-DURHAM DRIZZLE   68  65  90 VRB5      29.69R FOG
FORT BRAGG     PTSUNNY   70  66  88 SW3       29.70R
FAYETTEVILLE   CLOUDY    72  67  84 SW6       29.68R
BURLINGTON     CLOUDY    65  65 100 CALM      29.68S FOG
LAURINBURG     PTSUNNY   73  68  84 S5        29.68S
$$

NCZ011-015-027-028-043-044-047-080-103-241500-
NORTHEASTERN NORTH CAROLINA

CITY           SKY/WX    TMP DP  RH WIND       PRES   REMARKS
ROCKY MT-WILSO CLOUDY    66  65  96 NE7       29.70R
GREENVILLE     CLOUDY    70  68  94 CALM      29.73R FOG
WASHINGTON     PTSUNNY   71  66  83 CALM      29.70R
ELIZABETH CITY CLOUDY    63  63 100 NE8       29.72R FOG
MANTEO         CLOUDY    66  65  97 N5        29.71R
CAPE HATTERAS  CLOUDY    76  67  73 W6        29.71R
$$

NCZ078-087-090-091-093-098-101-241500-
SOUTHEASTERN NORTH CAROLINA

CITY           SKY/WX    TMP DP  RH WIND       PRES   REMARKS
LUMBERTON      PTSUNNY   73  68  84 SW6       29.68R
GOLDSBORO      CLOUDY    72  70  94 W5        29.68R
KINSTON        PTSUNNY   73  66  78 SW6       29.71R
KENANSVILLE    CLOUDY    72  66  83 S5        29.70S
NEW BERN       CLOUDY    73  67  81 CALM      29.73R
CHERRY POINT   CLOUDY    73  67  81 SW5       29.73R
BEAUFORT       CLOUDY    72  68  87 SW5       29.72S
JACKSONVILLE   NOT AVBL
WILMINGTON     CLOUDY    73  69  87 W8        29.70S
$$




USA.gov is the U.S. government's official web portal to all federal, state and local government web resources and services.